{"data":{"norad_id":54093,"intl_designator":"2022-136AU","name":"STARLINK-5213","alt_names":[],"object_type":"PAYLOAD","status":"ACTIVE","operator":null,"country":"US","launch_date":"2022-10-20","launch_site_code":"AFETR","launch_vehicle":null,"mission":null,"orbit_class":"UNKNOWN","rcs_meters":null,"size_class":null,"mass_kg":null,"dimensions":null,"purposes":["comms"],"wikipedia_slug":null,"has_3d_model":false,"image_url":null,"decayed_at":null,"tle_current":{"epoch":"2026-09-20T22:00:03.000096Z","epoch_age_seconds":53277,"freshness":"FRESH","line1":"1 54093U 22136AU  26263.91670139  .00002610  00000+0  13909-3 0  9993","line2":"2 54093  53.1604 176.2980 0002173  75.2556  63.6617 15.18775585  5699","mean_motion":15.18775585,"eccentricity":0.0002173,"inclination_deg":53.1604,"raan_deg":176.298,"arg_perigee_deg":75.2556,"mean_anomaly_deg":63.6617,"bstar":0.00013909,"rev_number":569,"period_min":94.813217582768,"perigee_km":508.04326698658,"apogee_km":511.03665139304,"semimajor_km":6887.6769591898,"source":"CELESTRAK","updated_at":"2026-09-21T09:00:33.083927Z"}}}